TimeMST,TemperatureF,Dew PointF,Humidity,Sea Level PressureIn,VisibilityMPH,Wind Direction,Wind SpeedMPH,Gust SpeedMPH,PrecipitationIn,Events,Conditions,WindDirDegrees,DateUTC
12:53 AM,62.1,46.0,56,30.04,10.0,NE,3.5,-,N/A,,Clear,40,2012-10-13 07:53:00
1:53 AM,59.0,46.0,62,30.05,10.0,Calm,Calm,-,N/A,,Clear,0,2012-10-13 08:53:00
2:53 AM,59.0,46.0,62,30.05,10.0,Calm,Calm,-,N/A,,Clear,0,2012-10-13 09:53:00
3:53 AM,59.0,46.0,62,30.06,10.0,Calm,Calm,-,N/A,,Clear,0,2012-10-13 10:53:00
4:53 AM,57.0,46.0,67,30.07,10.0,Calm,Calm,-,N/A,,Clear,0,2012-10-13 11:53:00
5:53 AM,55.9,45.0,67,30.09,10.0,Calm,Calm,-,N/A,,Clear,0,2012-10-13 12:53:00
6:53 AM,55.9,45.0,67,30.10,10.0,Calm,Calm,-,N/A,,Clear,0,2012-10-13 13:53:00
7:53 AM,60.1,46.0,60,30.11,10.0,Calm,Calm,-,N/A,,Clear,0,2012-10-13 14:53:00
8:53 AM,64.9,43.0,45,30.12,10.0,Calm,Calm,-,N/A,,Clear,0,2012-10-13 15:53:00
9:53 AM,68.0,42.1,39,30.13,10.0,West,3.5,-,N/A,,Clear,270,2012-10-13 16:53:00
10:53 AM,71.1,41.0,34,30.13,10.0,Calm,Calm,-,N/A,,Clear,0,2012-10-13 17:53:00
11:53 AM,72.0,37.9,29,30.10,10.0,Calm,Calm,-,N/A,,Clear,0,2012-10-13 18:53:00
1:53 PM,77.0,39.0,25,30.03,10.0,Variable,3.5,-,N/A,,Clear,0,2012-10-13 20:53:00
2:53 PM,80.1,39.0,23,30.00,10.0,NNE,4.6,-,N/A,,Clear,30,2012-10-13 21:53:00
3:53 PM,80.1,39.0,23,29.97,10.0,Calm,Calm,-,N/A,,Clear,0,2012-10-13 22:53:00
5:53 PM,78.1,37.9,24,29.97,10.0,WSW,4.6,-,N/A,,Clear,250,2012-10-14 00:53:00
7:53 PM,75.0,39.0,27,29.99,10.0,Calm,Calm,-,N/A,,Clear,0,2012-10-14 02:53:00
9:53 PM,70.0,43.0,38,30.01,10.0,Calm,Calm,-,N/A,,Clear,0,2012-10-14 04:53:00
10:53 PM,69.1,43.0,39,30.01,10.0,Calm,Calm,-,N/A,,Clear,0,2012-10-14 05:53:00
11:53 PM,66.0,45.0,47,30.01,10.0,Calm,Calm,-,N/A,,Clear,0,2012-10-14 06:53:00